Showing default

HULIANWANG DIGUI-32, 64285

Orbit data source: Space-Track

HULIANWANG DIGUI-32, 64285 is a payload satellite owned by Zhongguo Xingwang (CN) in LEO that was launched on Thu, 05 Jun 2025 UTC via a CHANG ZHENG 6A launch vehicle from the Taiyaun Space Center, China (TSC). Payload-class satellites include a variety of spacecraft equipped with specific instruments for various scientific and technological missions. These include communications satellites like Starlink; space stations such as the ISS; scientific satellites like the Hubble; Earth observation satellites from companies like Planet Labs, Umbra, and HawkEye 360; GPS; miniature CubeSats for education and research; and military/defense satellites.

Loading next visibility...
Identifier
64285, 2025-121C
Orbit
LEO
Last TLE update
8 hours ago
Origin
Flag of CNZXW (CN / PRC)
Manufacturer
CAST?
Mission
Operational spacecraft
Bus & Motor
Unknown
Mass
~800 kg wet, ~800 kg dry
Launch date (UTC)
2025-06-05 (2 weeks ago)
Launch vehicle
CHANG ZHENG 6A
Launch site
Taiyaun Space Center, China (TSC)
Object type
Payload
Rocket body
Debris
Shape & HBR
Unknown
Radar Cross Section
Large (>1 m²)

Expand to show TLE details & history

TLE from 8 hours ago
0 HULIANWANG DIGUI-32
1 64285U 25121C   25169.92254677 -.00000093  00000-0 -12699-3 0  9995
2 64285  86.4957 137.8695 0009143 175.2777 184.8471 13.68994258  1793
Epoch: 2025-06-18T22:08Z
TLE epoch observation values (Epoch: 2025-06-18T22:08:28.04Z)
Latitude
0.00002°
Longitude
-101.64496°
Altitude
1,012.869 km
Speed
7.342 km/s
True Right ascension
09h 11m 28s
True Declination
0° 00' 00"
Sunlit
Object was in daylight at epoch
Visualization orbit readout
Latitude
75.39045°
Longitude
64.72453°
Altitude
1,013.832 km
Speed
7.353 km/s
Apparent Right ascension
03h 02m 23s
Apparent Declination
36° 14' 33"
Sunlit
Object is in daylight
Visualization observer readout
Local Sidereal Time
16:30:17
Azimuth
17.917° NNE
Elevation
-11.204°
Doppler factor
1
Orbital elements
Apogee altitude
1,006.986 km
Perigee altitude
993.493 km
Semi-major axis
7,378.376 km
Eccentricity
0.00091
Inclination
86.4957°
RAAN
137.8695°
Arg. of periapsis
175.2777°
True anomaly
Unknown
Mean anomaly
184.8471°
Eccentric anomaly
Unknown
Mean motion
3.42454 °/min
Orbital period
105.12 mins
BSTAR
-0.00012699
Loading maneuver chart data...
Loading SW <> Apogee altitude chart data...
Loading historical data...
Loading historical data...
Loading historical data...
Loading historical data...
Loading historical data...
Loading historical data...
Loading historical data...

HULIANWANG DIGUI-32 Visibility forecast

Observer location: undefined°, undefined°

Span
Click to sort rows by Start time (UTC) header in descending order
Start Az.
Max El. time (UTC)
Max El. Az.
Max El.
End time (UTC)
End Az.
11 mins2025-06-19 09:14:56.106Z13.987° NNE2025-06-19 09:20:56.106Z87.566° E31.566°2025-06-19 09:25:56.106Z145.959° SSE
9 mins2025-06-19 11:01:56.106Z329.04° NNW2025-06-19 11:05:56.106Z277.977° WNW27.257°2025-06-19 11:10:56.106Z220.74° SW
7 mins2025-06-19 21:05:56.106Z111.164° ESE2025-06-19 21:08:56.106Z76.511° E19.593°2025-06-19 21:12:56.106Z35.135° NE
11 mins2025-06-19 22:48:56.106Z200.759° SSW2025-06-19 22:53:56.106Z283.931° WNW40.135°2025-06-19 22:59:56.106Z354.287° N
|